Location: Gälforsberget
(66.6500°N, 22.4167°E)
Time: 21:30:16
(UTC+00:00)

SL-16 R/B - Pass Details

Date: 11 April 2026
Orbit: 841 x 845 km, 71.0° (Epoch: 11 May)

Event Time Altitude Azimuth Distance (km) Brightness Sun altitude
Rises 20:41:48 0° 257° (WSW) 3,406 5.6 -12.2°
Reaches altitude 10° 20:44:16 10° 261° (W) 2,472 4.9 -12.3°
Maximum altitude 20:49:55 63° 343° (NNW) 947 2.8 -12.6°
Drops below altitude 10° 20:55:34 10° 65° (ENE) 2,479 4.7 -12.8°
Sets 20:58:03 0° 68° (ENE) 3,415 5.3 -12.9°
